Date String (YYYY-MM-DD hh:mm:ss) UTC,Instrument flags,absolute air pressure of the measurement (hPa),sample flow rate (lpm),inlet stack bypass flow (lpm),air temperature of the measurement (°C),ambient temperature measured by the external sensor (°C),aerosol sample conditioner tube jacket temperature (°C),OPC LED temperature (°C),internal box temperature (°C),relative humidity of the measurement (%),span deviation,mass concentration of particles derived from Lorenz-Mie calculation of OPC scattering (μg/m³),mass concentration of particles derived from Lorenz-Mie calculation of OPC scattering (μg/m³),mass concentration of particles derived from Lorenz-Mie calculation of OPC scattering (μg/m³)
DateTimeUTC,F1_M11,P_M11,Q1_M11,Q2_M11,T1_M11,T2_M11,T3_M11,T4_M11,T5_M11,U1_M11,ZSPAN_M11,X0_M11,X2_M11,X1_M11
2024-04-05 12:00:00,SystemResetWarning,0822.0,5.00,000.00,024.3,023.5,000.0,033.0,026.2,015.0,0000.0,0017.70,0003.92,0002.49
2024-04-05 12:01:00,SystemResetWarning,0821.9,5.00,000.00,024.3,023.5,000.0,033.0,026.2,014.9,0000.0,0016.76,0003.89,0002.48
2024-04-05 12:02:00,SystemResetWarning,0822.0,5.00,000.00,024.3,023.5,000.0,033.0,026.2,014.8,0000.0,0016.54,0003.92,0002.49
2024-04-05 12:03:00,SystemResetWarning,0821.8,5.00,000.00,024.3,023.5,000.0,033.0,026.2,014.8,0000.0,0016.40,0003.93,0002.49
2024-04-05 12:04:00,SystemResetWarning,0822.1,5.00,000.00,024.3,023.5,000.0,032.9,026.2,014.6,0000.0,0016.27,0003.90,0002.49
2024-04-05 12:05:00,SystemResetWarning,0822.0,5.00,000.00,024.3,023.5,000.0,032.9,026.2,014.7,0000.0,0016.21,0003.83,0002.47
2024-04-05 12:06:00,SystemResetWarning,0822.0,5.00,000.00,024.3,023.5,000.0,032.9,026.2,014.7,0000.0,0016.27,0003.80,0002.45
2024-04-05 12:07:00,SystemResetWarning,0822.0,5.00,000.00,024.3,023.5,000.0,032.9,026.1,014.7,0000.0,0016.25,0003.86,0002.43
2024-04-05 12:08:00,SystemResetWarning,0822.0,5.00,000.00,024.3,023.5,000.0,032.9,026.1,014.8,0000.0,0015.44,0003.83,0002.41
2024-04-05 12:09:00,SystemResetWarning,0821.8,5.00,000.00,024.3,023.4,000.0,032.9,026.1,014.8,0000.0,0015.18,0003.77,0002.39
2024-04-05 12:10:00,SystemResetWarning,0821.5,5.00,000.00,024.3,023.4,000.0,032.9,026.1,014.7,0000.0,0012.54,0003.70,0002.39
2024-04-05 12:11:00,SystemResetWarning,0821.9,5.00,000.00,024.2,023.4,000.0,032.9,026.1,014.7,0000.0,0011.75,0003.65,0002.39
2024-04-05 12:12:00,SystemResetWarning,0821.9,5.00,000.00,024.2,023.4,000.0,032.9,026.1,014.8,0000.0,0010.66,0003.61,0002.38
2024-04-05 12:13:00,SystemResetWarning,0821.7,5.00,000.00,024.2,023.4,000.0,032.9,026.1,014.8,0000.0,0009.95,0003.59,0002.37
2024-04-05 12:14:00,SystemResetWarning,0821.6,5.00,000.00,024.2,023.4,000.0,032.9,026.1,015.0,0000.0,0009.72,0003.59,0002.37
2024-04-05 12:15:00,SystemResetWarning,0821.5,5.01,000.00,024.2,023.3,000.0,032.9,026.1,015.1,0000.0,0009.98,0003.64,0002.41
2024-04-05 12:16:00,SystemResetWarning,0821.6,5.00,000.00,024.2,023.3,000.0,032.9,026.1,015.1,0000.0,0010.87,0003.68,0002.43
2024-04-05 12:17:00,SystemResetWarning,0821.6,5.00,000.00,024.2,023.3,000.0,032.9,026.1,015.2,0000.0,0011.40,0003.67,0002.45
2024-04-05 12:18:00,SystemResetWarning,0821.6,5.00,000.00,024.2,023.2,000.0,032.9,026.0,015.2,0000.0,0012.14,0003.64,0002.46
2024-04-05 12:19:00,SystemResetWarning,0821.6,4.99,000.00,024.2,023.2,000.0,032.9,026.0,015.2,0000.0,0012.43,0003.68,0002.49
2024-04-05 12:20:00,SystemResetWarning,0821.6,4.99,000.00,024.2,023.1,000.0,032.9,026.0,015.3,0000.0,0013.12,0003.74,0002.51
2024-04-05 12:21:00,SystemResetWarning,0821.6,5.00,000.00,024.1,023.1,000.0,032.9,026.0,015.4,0000.0,0013.99,0003.81,0002.52
2024-04-05 12:22:00,SystemResetWarning,0821.6,5.01,000.00,024.1,023.0,000.0,032.8,026.0,015.5,0000.0,0014.00,0003.85,0002.55
2024-04-05 12:23:00,SystemResetWarning,0821.6,5.00,000.00,024.1,023.0,000.0,032.8,025.9,015.7,0000.0,0014.64,0003.95,0002.57
2024-04-05 12:24:00,SystemResetWarning,0821.7,5.00,000.00,024.1,023.0,000.0,032.8,025.9,015.9,0000.0,0016.08,0003.95,0002.59
2024-04-05 12:25:00,SystemResetWarning,0821.7,5.00,000.00,024.1,023.0,000.0,032.8,025.9,015.9,0000.0,0017.20,0003.98,0002.62
2024-04-05 12:26:00,SystemResetWarning,0821.6,4.99,000.00,024.0,022.9,000.0,032.8,025.9,016.0,0000.0,0017.18,0004.05,0002.63
2024-04-05 12:27:00,SystemResetWarning,0821.6,4.99,000.00,024.0,022.9,000.0,032.8,025.9,016.0,0000.0,0016.91,0004.09,0002.65
2024-04-05 12:28:00,SystemResetWarning,0821.6,5.00,000.00,024.0,022.9,000.0,032.8,025.9,016.1,0000.0,0017.84,0004.20,0002.67
2024-04-05 12:29:00,SystemResetWarning,0821.7,5.01,000.00,024.0,022.9,000.0,032.8,025.8,016.1,0000.0,0017.46,0004.25,0002.68
2024-04-05 12:30:00,SystemResetWarning,0821.7,5.01,000.00,024.0,022.9,000.0,032.7,025.8,016.3,0000.0,0017.66,0004.27,0002.70
2024-04-05 12:31:00,SystemResetWarning,0821.7,5.00,000.00,024.0,022.9,000.0,032.7,025.7,016.4,0000.0,0018.65,0004.32,0002.71
2024-04-05 12:32:00,SystemResetWarning,0821.6,5.00,000.00,023.9,022.9,000.0,032.7,025.7,016.5,0000.0,0019.16,0004.32,0002.73
2024-04-05 12:33:00,SystemResetWarning,0821.6,5.00,000.00,023.9,022.9,000.0,032.7,025.7,016.6,0000.0,0020.68,0004.34,0002.73
2024-04-05 12:34:00,SystemResetWarning,0821.6,5.00,000.00,023.9,022.9,000.0,032.7,025.7,016.6,0000.0,0021.60,0004.34,0002.73
2024-04-05 12:35:00,SystemResetWarning,0821.6,4.99,000.00,023.9,022.9,000.0,032.7,025.7,016.6,0000.0,0020.87,0004.39,0002.74
2024-04-05 12:36:00,SystemResetWarning,0821.6,4.99,000.00,023.9,022.9,000.0,032.7,025.7,016.5,0000.0,0019.89,0004.38,0002.74
2024-04-05 12:37:00,SystemResetWarning,0821.6,4.99,000.00,023.9,022.9,000.0,032.7,025.7,016.4,0000.0,0019.90,0004.30,0002.74
2024-04-05 12:38:00,SystemResetWarning,0821.7,5.00,000.00,023.9,022.9,000.0,032.7,025.7,016.5,0000.0,0020.35,0004.29,0002.74
2024-04-05 12:39:00,SystemResetWarning,0821.7,5.01,000.00,023.9,022.9,000.0,032.6,025.7,016.7,0000.0,0020.35,0004.28,0002.75
2024-04-05 12:40:00,SystemResetWarning,0821.6,5.00,000.00,023.9,022.9,000.0,032.6,025.7,016.6,0000.0,0020.59,0004.25,0002.77
2024-04-05 12:41:00,SystemResetWarning,0821.6,4.99,000.00,023.9,022.9,000.0,032.6,025.7,016.5,0000.0,0020.65,0004.26,0002.77
2024-04-05 12:42:00,SystemResetWarning,0821.6,5.00,000.00,023.9,022.9,000.0,032.6,025.7,016.7,0000.0,0020.18,0004.28,0002.78
2024-04-05 12:43:00,SystemResetWarning,0821.6,5.01,000.00,023.9,022.9,000.0,032.6,025.7,016.8,0000.0,0019.40,0004.30,0002.78
2024-04-05 12:44:00,SystemResetWarning,0821.6,5.00,000.00,023.9,022.9,000.0,032.6,025.7,016.9,0000.0,0018.59,0004.29,0002.79
2024-04-05 12:45:00,SystemResetWarning,0821.6,4.99,000.00,023.9,022.9,000.0,032.6,025.6,016.6,0000.0,0017.97,0004.29,0002.82
2024-04-05 12:46:00,SystemResetWarning,0821.7,4.99,000.00,023.8,022.9,000.0,032.6,025.7,016.6,0000.0,0019.27,0004.32,0002.83
2024-04-05 12:47:00,SystemResetWarning,0821.6,5.01,000.00,023.8,022.9,000.0,032.6,025.7,016.3,0000.0,0019.86,0004.42,0002.83
2024-04-05 12:48:00,SystemResetWarning,0821.6,5.00,000.00,023.8,022.9,000.0,032.6,025.6,016.5,0000.0,0020.36,0004.49,0002.83
2024-04-05 12:49:00,SystemResetWarning,0821.6,5.01,000.00,023.8,022.9,000.0,032.6,025.7,016.9,0000.0,0020.03,0004.50,0002.83
2024-04-05 12:50:00,SystemResetWarning,0821.7,5.00,000.00,023.8,022.9,000.0,032.5,025.7,017.0,0000.0,0020.23,0004.45,0002.80
2024-04-05 12:51:00,SystemResetWarning,0821.8,5.00,000.00,023.8,022.9,000.0,032.5,025.6,016.9,0000.0,0020.08,0004.42,0002.77
2024-04-05 12:52:00,SystemResetWarning,0821.7,4.99,000.00,023.8,022.9,000.0,032.5,025.6,016.9,0000.0,0020.96,0004.39,0002.74
2024-04-05 12:53:00,SystemResetWarning,0821.7,4.99,000.00,023.8,022.9,000.0,032.5,025.6,016.7,0000.0,0021.43,0004.37,0002.72
2024-04-05 12:54:00,SystemResetWarning,0821.7,5.00,000.00,023.8,022.9,000.0,032.5,025.6,016.7,0000.0,0022.09,0004.34,0002.71
2024-04-05 12:55:00,SystemResetWarning,0821.8,5.01,000.00,023.8,022.9,000.0,032.5,025.6,016.7,0000.0,0021.76,0004.31,0002.69
2024-04-05 12:56:00,SystemResetWarning,0821.8,5.00,000.00,023.8,022.9,000.0,032.5,025.6,016.8,0000.0,0020.91,0004.32,0002.66
2024-04-05 12:57:00,SystemResetWarning,0821.8,4.99,000.00,023.8,022.9,000.0,032.5,025.6,016.8,0000.0,0021.79,0004.36,0002.65
2024-04-05 12:58:00,SystemResetWarning,0821.8,4.99,000.00,023.8,022.9,000.0,032.5,025.6,016.8,0000.0,0022.72,0004.33,0002.64
2024-04-05 12:59:00,SystemResetWarning,0821.8,5.00,000.00,023.8,022.9,000.0,032.5,025.6,016.8,0000.0,0022.93,0004.28,0002.64
